TimeCST,TemperatureF,Dew PointF,Humidity,Sea Level PressureIn,VisibilityMPH,Wind Direction,Wind SpeedMPH,Gust SpeedMPH,PrecipitationIn,Events,Conditions,WindDirDegrees,DateUTC
12:15 AM,21.2,15.8,80,30.24,10.0,WSW,4.6,-,N/A,,Clear,250,2013-01-07 06:15:00
12:35 AM,19.4,15.8,86,30.24,10.0,SW,3.5,-,N/A,,Clear,230,2013-01-07 06:35:00
12:55 AM,19.4,14.0,80,30.24,10.0,SW,3.5,-,N/A,,Clear,230,2013-01-07 06:55:00
1:15 AM,17.6,12.2,79,30.23,10.0,SW,3.5,-,N/A,,Clear,220,2013-01-07 07:15:00
1:35 AM,17.6,12.2,79,30.23,10.0,SW,6.9,-,N/A,,Clear,220,2013-01-07 07:35:00
1:55 AM,17.6,15.8,93,30.22,10.0,SSW,8.1,-,N/A,,Clear,210,2013-01-07 07:55:00
2:15 AM,17.6,12.2,79,30.23,10.0,SW,6.9,-,N/A,,Clear,220,2013-01-07 08:15:00
2:35 AM,17.6,14.0,86,30.22,9.0,SSW,5.8,-,N/A,,Clear,210,2013-01-07 08:35:00
2:55 AM,17.6,12.2,79,30.22,8.0,SSW,4.6,-,N/A,,Clear,210,2013-01-07 08:55:00
3:15 AM,17.6,12.2,79,30.21,8.0,SSW,6.9,-,N/A,,Clear,210,2013-01-07 09:15:00
3:35 AM,17.6,14.0,86,30.20,8.0,SSW,6.9,-,N/A,,Clear,200,2013-01-07 09:35:00
3:55 AM,17.6,12.2,79,30.19,7.0,SSW,6.9,-,N/A,,Clear,200,2013-01-07 09:55:00
4:15 AM,17.6,12.2,79,30.18,8.0,SSW,6.9,-,N/A,,Clear,210,2013-01-07 10:15:00
4:35 AM,17.6,10.4,73,30.17,10.0,South,4.6,-,N/A,,Clear,190,2013-01-07 10:35:00
4:55 AM,17.6,10.4,73,30.17,10.0,South,9.2,-,N/A,,Clear,170,2013-01-07 10:55:00
5:15 AM,17.6,8.6,68,30.16,10.0,South,9.2,-,N/A,,Clear,170,2013-01-07 11:15:00
5:35 AM,15.8,10.4,79,30.16,10.0,South,6.9,-,N/A,,Clear,170,2013-01-07 11:35:00
6:35 AM,17.6,6.8,63,30.14,10.0,South,10.4,-,N/A,,Clear,180,2013-01-07 12:35:00
6:55 AM,19.4,8.6,63,30.13,10.0,South,11.5,-,N/A,,Clear,190,2013-01-07 12:55:00
7:15 AM,19.4,8.6,63,30.13,10.0,South,12.7,-,N/A,,Clear,180,2013-01-07 13:15:00
7:35 AM,19.4,10.4,68,30.11,10.0,South,12.7,-,N/A,,Clear,180,2013-01-07 13:35:00
7:55 AM,21.2,12.2,68,30.12,10.0,SSW,11.5,-,N/A,,Clear,200,2013-01-07 13:55:00
8:15 AM,24.8,12.2,59,30.13,10.0,SSW,15.0,19.6,N/A,,Clear,200,2013-01-07 14:15:00
8:35 AM,24.8,14.0,64,30.12,10.0,South,16.1,20.7,N/A,,Clear,190,2013-01-07 14:35:00
8:55 AM,26.6,14.0,59,30.11,10.0,South,17.3,24.2,N/A,,Clear,180,2013-01-07 14:55:00
9:15 AM,26.6,14.0,59,30.11,10.0,South,16.1,20.7,N/A,,Clear,190,2013-01-07 15:15:00
9:35 AM,28.4,14.0,55,30.11,10.0,South,15.0,-,N/A,,Clear,180,2013-01-07 15:35:00
9:55 AM,28.4,15.8,59,30.11,10.0,South,17.3,20.7,N/A,,Clear,180,2013-01-07 15:55:00
10:15 AM,28.4,15.8,59,30.09,10.0,South,17.3,-,N/A,,Clear,170,2013-01-07 16:15:00
10:35 AM,28.4,15.8,59,30.08,10.0,South,18.4,-,N/A,,Clear,170,2013-01-07 16:35:00
10:55 AM,30.2,17.6,60,30.06,10.0,South,16.1,-,N/A,,Clear,180,2013-01-07 16:55:00
11:15 AM,30.2,17.6,60,30.03,10.0,South,15.0,-,N/A,,Clear,180,2013-01-07 17:15:00
11:35 AM,33.8,17.6,52,30.02,10.0,South,18.4,21.9,N/A,,Clear,190,2013-01-07 17:35:00
11:55 AM,33.8,17.6,52,30.00,10.0,South,19.6,24.2,N/A,,Clear,190,2013-01-07 17:55:00
12:15 PM,35.6,17.6,48,30.00,10.0,South,17.3,27.6,N/A,,Clear,190,2013-01-07 18:15:00
12:35 PM,35.6,19.4,52,29.98,10.0,South,18.4,26.5,N/A,,Clear,190,2013-01-07 18:35:00
1:15 PM,37.4,19.4,48,29.98,10.0,SSW,16.1,23.0,N/A,,Clear,200,2013-01-07 19:15:00
1:35 PM,37.4,19.4,48,29.98,10.0,SSW,19.6,27.6,N/A,,Clear,210,2013-01-07 19:35:00
1:55 PM,37.4,19.4,48,29.98,10.0,SSW,23.0,32.2,N/A,,Clear,210,2013-01-07 19:55:00
2:15 PM,37.4,19.4,48,29.98,10.0,SW,23.0,31.1,N/A,,Clear,220,2013-01-07 20:15:00
2:35 PM,37.4,19.4,48,29.98,10.0,SSW,19.6,28.8,N/A,,Clear,210,2013-01-07 20:35:00
2:55 PM,37.4,19.4,48,29.99,10.0,SSW,15.0,25.3,N/A,,Clear,210,2013-01-07 20:55:00
3:15 PM,37.4,19.4,48,29.98,10.0,SW,20.7,31.1,N/A,,Clear,220,2013-01-07 21:15:00
3:35 PM,37.4,19.4,48,29.97,10.0,SSW,19.6,27.6,N/A,,Clear,210,2013-01-07 21:35:00
3:55 PM,35.6,21.2,56,29.98,10.0,SSW,20.7,27.6,N/A,,Clear,210,2013-01-07 21:55:00
4:15 PM,35.6,19.4,52,29.98,10.0,SW,15.0,27.6,N/A,,Clear,220,2013-01-07 22:15:00
4:35 PM,35.6,21.2,56,29.99,10.0,SW,18.4,25.3,N/A,,Clear,220,2013-01-07 22:35:00
5:15 PM,35.6,21.2,56,29.99,10.0,SSW,15.0,21.9,N/A,,Clear,210,2013-01-07 23:15:00
5:35 PM,33.8,21.2,60,29.99,10.0,SSW,13.8,20.7,N/A,,Clear,210,2013-01-07 23:35:00
5:55 PM,33.8,21.2,60,29.99,10.0,SSW,11.5,-,N/A,,Clear,200,2013-01-07 23:55:00
6:15 PM,33.8,21.2,60,29.99,10.0,SSW,13.8,-,N/A,,Clear,210,2013-01-08 00:15:00
6:35 PM,33.8,21.2,60,29.99,10.0,SSW,15.0,-,N/A,,Clear,210,2013-01-08 00:35:00
6:55 PM,33.8,21.2,60,29.99,10.0,SW,13.8,-,N/A,,Clear,220,2013-01-08 00:55:00
7:15 PM,33.8,23.0,65,29.99,10.0,SSW,12.7,19.6,N/A,,Clear,210,2013-01-08 01:15:00
7:35 PM,33.8,23.0,65,29.99,10.0,SW,12.7,18.4,N/A,,Clear,220,2013-01-08 01:35:00
7:55 PM,33.8,23.0,65,29.98,10.0,SW,13.8,-,N/A,,Clear,220,2013-01-08 01:55:00
8:15 PM,33.8,23.0,65,29.99,10.0,SW,13.8,19.6,N/A,,Clear,230,2013-01-08 02:15:00
8:35 PM,33.8,23.0,65,29.99,10.0,SW,11.5,-,N/A,,Clear,230,2013-01-08 02:35:00
8:55 PM,33.8,23.0,65,30.00,10.0,SW,10.4,-,N/A,,Clear,220,2013-01-08 02:55:00
9:15 PM,33.8,23.0,65,30.00,10.0,SW,10.4,-,N/A,,Clear,220,2013-01-08 03:15:00
9:35 PM,33.8,23.0,65,30.01,10.0,SW,8.1,-,N/A,,Clear,220,2013-01-08 03:35:00
9:55 PM,33.8,23.0,65,30.00,10.0,SW,8.1,-,N/A,,Clear,230,2013-01-08 03:55:00
10:15 PM,33.8,24.8,70,30.00,10.0,SW,8.1,-,N/A,,Clear,230,2013-01-08 04:15:00
10:35 PM,33.8,23.0,65,30.01,10.0,SW,8.1,-,N/A,,Clear,230,2013-01-08 04:35:00
10:55 PM,33.8,23.0,65,30.01,10.0,SSW,8.1,-,N/A,,Clear,210,2013-01-08 04:55:00
11:15 PM,33.8,23.0,65,30.01,10.0,SW,8.1,-,N/A,,Clear,220,2013-01-08 05:15:00
11:35 PM,33.8,23.0,65,30.01,10.0,SW,9.2,-,N/A,,Clear,220,2013-01-08 05:35:00
11:55 PM,32.0,23.0,69,30.01,10.0,SW,8.1,-,N/A,,Clear,220,2013-01-08 05:55:00